SCP
0 0 0 0 0 0 0 0 0 0 0 0 0 0 0 0 1 1 1 2 2 2 2 2 1 1 0 0 0 0 0 0 0 0 0 0 0 0 0 0 0 0 0 0
0 0 0 0 0 0 0 0 0 0 0 0 0 0 0 0 0 1 1 2 2 2 2 1 1 0 0 0 0 0 0 0 0 0 0 0 0 0 0 0 0 0 0 0
0 0 0 0 0 0 0 0 0 0 0 0 0 0 0 0 0 1 1 2 2 2 1 1 0 -0 -0 -0 -0 0 0 0 0 0 0 0 0 0 0 0 0 0 0 0
0 0 0 0 0 0 0 0 0 0 0 0 0 0 0 0 0 1 1 1 1 1 0 0 -0 -0 -0 -0 0 0 0 0 0 0 0 0 0 0 0 0 0 0 0 0
0 0 0 0 0 0 0 0 0 0 0 0 0 0 0 0 0 0 0 0 0 0 0 -0 -0 -0 -0 0 0 0 0 0 0 0 0 0 0 0 0 0 0 0 0 0
0 0 0 0 0 0 0 0 0 0 0 0 0 0 0 0 0 0 0 -0 -0 -0 -0 -0 -0 -0 0 0 0 0 0 0 0 0 0 0 0 0 0 0 0 0 0 0
0 0 0 0 0 0 0 0 0 0 0 0 0 0 0 0 0 0 -0 -0 -0 -0 -0 -0 -0 0 0 0 0 0 0 0 0 0 0 0 0 0 0 0 0 0 0 0
0 0 0 0 0 0 0 0 0 0 0 0 0 0 0 0 0 -0 -0 -0 -0 -0 -0 -0 -0 0 0 0 0 0 0 0 0 0 0 0 0 0 0 0 0 0 0 0
0 0 0 0 0 0 0 0 0 0 0 0 0 0 0 0 0 -0 -0 -0 -0 -0 -0 -0 0 0 0 0 0 0 0 0 0 0 0 0 0 0 0 0 0 0 0 0
0 0 0 0 0 0 0 0 0 0 0 0 0 0 0 0 0 0 0 0 0 0 0 0 0 0 0 0 0 0 0 0 0 0 0 0 0 0 0 0 0 0 0 0
0 0 0 0 0 0 0 0 0 0 0 0 0 0 0 0 0 0 0 0 0 0 0 0 0 0 0 0 0 0 0 0 0 0 0 0 0 0 0 0 0 0 0 0
0 0 0 0 0 0 0 0 0 0 0 0 0 0 0 0 0 0 0 0 0 0 0 0 0 0 0 0 0 0 0 0 0 0 0 0 0 0 0 0 0 0 0 0
0 0 0 0 0 0 0 0 0 0 0 0 0 0 0 0 0 0 0 0 0 0 0 0 0 0 0 0 0 0 0 0 0 0 0 0 0 0 0 0 0 0 0 0
0 0 0 0 0 0 0 0 0 0 0 0 0 0 0 0 0 0 0 -0 -0 -0 0 0 0 0 0 0 0 0 0 0 0 0 0 0 0 0 0 0 0 0 0 0
0 0 0 0 0 0 0 0 0 0 0 0 0 0 0 0 0 0 0 -0 -0 -0 0 0 0 0 0 0 -0 -0 -0 -0 0 0 0 0 0 0 0 0 0 0 0 0
0 0 0 0 0 0 0 0 0 0 0 0 0 0 0 0 0 0 -0 -0 -0 -0 -0 0 0 0 0 0 0 0 0 0 0 0 0 0 0 0 0 0 0 0 0 0
0 0 0 0 0 0 0 0 0 0 0 0 0 0 0 0 0 0 -0 -0 -0 -0 -0 0 0 0 0 0 0 0 0 0 0 0 0 0 0 0 0 0 0 0 0 0
0 0 0 0 0 0 0 0 0 0 0 0 0 0 0 0 0 -0 0 -0 -0 -0 -0 0 0 0 0 0 0 0 0 0 0 0 0 0 0 0 0 0 0 0 0 0
0 0 0 0 0 0 0 0 0 0 0 0 0 0 0 0 0 0 0 0 -0 -0 -0 0 0 0 0 0 0 0 0 0 0 0 0 0 0 0 0 0 0 0 0 0
0 0 0 0 0 0 0 0 0 0 0 0 0 0 0 0 0 0 0 0 0 0 0 0 0 0 0 0 0 0 0 0 0 0 0 0 0 0 0 0 0 0 0 0
0 0 0 0 0 0 0 0 0 0 0 0 0 0 0 0 0 0 0 0 0 0 0 0 0 0 0 0 0 0 0 0 0 0 0 0 0 0 0 0 0 0 0 0
0 0 0 0 0 0 0 0 0 0 0 0 0 0 0 0 0 0 0 0 0 0 0 0 0 0 0 0 0 0 0 0 0 0 0 0 0 0 0 0 0 0 0 0
0 0 0 0 0 0 0 0 0 0 0 0 0 0 0 0 0 0 0 0 0 0 0 0 0 0 0 0 0 0 0 0 0 0 0 0 0 0 0 0 0 0 0 0
0 0 0 0 0 0 0 0 0 0 0 0 0 0 0 0 0 0 0 0 0 0 0 0 0 0 0 0 0 0 0 0 0 0 0 0 0 0 0 -0 -0 0 0 0
0 0 0 0 0 0 0 0 0 0 0 0 0 0 0 0 0 0 0 0 0 0 0 0 0 0 0 0 0 0 0 0 0 0 0 0 0 0 0 -0 -0 0 0 0
0 0 0 0 0 0 0 0 0 0 0 0 0 0 0 0 0 0 0 0 0 0 0 0 0 0 0 0 0 0 0 0 0 0 0 0 0 0 -0 -0 -0 0 0 0
Wind_Speed
3 4 2 5 5 3 1 1 2 3 3 3 3 2 3 2 1 3 4 5 5 5 3 3 4 6 6 5 5 6 6 5 3 2 1 1 2 2 2 3 4 4 5 5
4 3 5 3 3 3 2 1 1 3 3 2 1 2 3 2 2 4 6 5 5 4 3 3 4 4 6 6 6 6 5 4 3 2 2 1 1 2 2 3 4 5 5 6
3 6 3 1 2 3 2 3 2 2 3 5 2 5 4 3 4 2 2 4 5 6 7 7 6 6 6 6 7 5 5 4 3 2 1 1 1 2 2 3 3 4 6 7
3 5 2 1 0 3 2 3 2 1 1 3 3 3 6 4 4 1 2 5 7 7 6 7 7 7 8 7 4 3 4 3 3 3 2 2 1 2 3 3 4 6 6 6
4 3 1 0 2 2 3 2 2 2 2 2 3 1 8 4 3 3 4 6 8 8 8 9 9 8 7 4 3 3 4 3 3 3 4 3 3 3 3 3 5 5 5 6
4 3 1 2 1 1 3 5 5 5 5 2 1 0 6 4 5 5 5 7 8 8 7 8 7 5 5 2 3 4 5 4 4 4 4 4 4 3 3 4 4 4 4 5
7 7 4 1 1 3 6 7 6 7 6 4 3 2 9 7 5 5 7 7 6 5 5 6 7 6 6 4 4 5 6 5 4 4 4 4 4 3 4 4 4 5 5 5
1 7 5 2 1 3 2 8 7 3 4 5 4 4 7 5 5 4 4 4 6 7 6 7 7 6 6 6 5 6 6 6 5 5 5 4 4 3 3 4 4 5 5 6
4 6 5 3 3 3 4 2 5 6 2 2 6 6 8 12 14 13 11 11 11 10 9 9 9 8 7 6 5 4 5 5 5 5 5 5 5 4 5 5 4 4 5 6
7 4 5 6 4 4 2 7 5 5 3 3 5 3 6 13 14 13 13 13 12 12 12 12 12 12 10 8 7 5 4 4 5 5 5 4 5 5 5 4 5 5 5 6
3 4 5 6 3 3 2 3 5 4 4 5 4 3 3 5 7 8 10 10 10 11 12 11 11 10 10 11 11 9 8 7 6 6 6 6 6 5 5 5 5 5 5 6
3 5 2 5 5 2 1 3 5 2 3 4 3 3 4 4 5 6 8 9 8 9 9 9 11 12 13 13 11 10 9 8 8 8 7 8 7 6 6 6 6 4 5 5
6 6 3 8 7 4 1 2 3 4 3 4 4 4 4 5 6 7 7 8 8 9 9 10 10 11 12 11 11 11 10 9 9 9 9 9 9 8 8 8 6 4 4 4
7 5 7 7 8 4 3 2 1 5 3 4 6 4 5 8 8 9 8 8 8 8 9 9 9 9 9 9 9 10 11 10 10 10 10 10 10 10 9 8 6 5 4 3
4 3 5 6 4 0 1 4 5 2 1 3 0 4 3 6 8 8 9 9 10 11 12 12 11 10 10 10 9 9 10 10 11 11 11 11 11 9 8 8 7 6 4 3
3 1 1 3 1 2 4 8 5 6 5 3 4 2 3 7 7 9 11 11 11 12 13 12 12 12 12 12 12 11 11 11 10 10 11 12 11 9 8 9 7 6 6 4
2 3 2 3 3 2 4 7 4 3 3 3 2 3 8 9 11 12 14 13 10 11 12 12 13 12 12 12 12 11 11 11 10 10 10 11 11 10 9 8 8 8 7 5
4 3 2 1 3 1 2 3 4 3 2 2 2 6 8 10 11 12 13 11 10 10 11 13 13 13 12 13 12 11 11 10 10 10 10 9 10 10 8 7 9 9 7 6
3 5 3 2 1 3 3 3 5 4 3 2 5 9 10 8 8 8 8 7 9 11 12 13 13 13 13 14 13 11 12 11 11 10 10 9 9 10 9 8 9 8 7 7
7 5 5 3 2 1 1 7 8 4 4 4 5 9 11 9 8 8 8 10 13 15 14 13 13 12 13 14 11 10 12 12 12 11 10 9 8 9 9 9 9 7 8 9
7 6 5 2 1 2 3 9 7 1 6 7 8 10 10 9 11 12 13 15 16 17 17 16 14 12 12 13 10 11 12 14 14 11 10 9 8 8 9 8 8 8 9 9
2 3 3 2 3 2 4 4 2 6 7 8 10 11 12 14 16 17 15 15 15 16 16 16 14 14 12 11 11 13 14 15 12 10 10 10 9 8 8 7 8 8 10 11
3 1 0 1 1 3 4 5 7 7 9 10 10 13 15 16 18 18 17 16 16 17 16 14 14 14 12 11 11 14 15 14 12 11 11 10 9 8 7 7 8 7 9 10
3 2 2 1 2 5 7 7 7 7 9 11 13 15 15 17 19 19 18 16 15 16 15 14 14 14 13 12 12 13 14 12 11 12 11 10 8 8 7 6 5 6 7 10
2 2 2 2 5 8 7 7 9 10 11 14 15 15 15 18 20 20 18 17 16 15 14 13 14 15 16 13 13 13 12 11 11 12 11 9 8 8 7 6 6 6 8 10
1 2 1 3 6 6 10 10 11 12 13 15 17 17 15 16 19 20 19 16 16 16 15 15 15 16 16 14 14 13 12 11 10 10 9 8 7 6 6 6 7 10 12 14
Wind_Direction
26 48 279 239 202 209 238 219 260 287 330 44 51 9 331 329 146 175 173 160 144 135 129 136 147 150 148 158 165 173 180 189 166 147 170 215 257 274 287 291 297 304 299 293
16 310 255 237 199 189 188 150 267 296 351 37 358 330 313 318 253 226 196 168 154 144 153 177 184 180 178 184 189 190 191 185 177 159 159 183 236 275 282 301 311 308 309 305
232 264 297 10 108 123 147 170 209 265 346 20 14 338 330 319 337 341 160 159 176 183 189 200 206 211 207 209 205 197 190 183 172 150 107 58 14 339 323 316 310 310 312 307
261 273 313 38 97 139 219 235 221 220 45 323 20 299 300 324 339 355 168 177 199 204 207 213 216 221 222 223 212 197 183 169 159 149 152 169 220 265 266 284 290 301 302 305
301 307 333 277 266 197 209 66 68 65 123 41 20 99 290 333 322 272 223 211 215 216 215 221 225 227 231 224 201 190 175 174 173 168 172 184 215 236 271 286 292 298 301 302
270 303 280 257 332 52 99 66 49 49 65 61 311 204 284 268 239 248 243 235 232 231 234 240 247 252 256 235 196 184 183 192 188 183 188 198 218 244 279 294 301 305 304 300
335 332 329 303 19 15 69 70 21 2 10 269 280 223 252 261 255 240 243 251 258 265 264 270 276 273 267 248 220 201 195 207 204 202 211 213 217 231 254 274 287 299 304 305
324 307 301 324 221 224 155 133 153 206 235 280 321 240 258 316 331 323 324 349 360 353 345 331 322 307 289 269 240 215 211 218 214 218 226 223 221 226 242 251 262 279 287 294
190 263 295 332 314 164 144 162 160 137 174 269 286 292 319 360 4 9 18 27 22 13 11 4 358 353 339 322 295 261 248 248 238 233 235 236 232 235 247 256 260 272 281 294
169 236 296 320 7 27 126 137 98 116 160 252 289 319 331 344 351 7 24 28 23 20 21 19 18 14 9 4 359 357 332 294 284 272 260 256 245 242 249 258 268 278 289 297
135 171 302 348 6 334 34 74 91 108 154 171 249 272 30 2 1 19 24 22 17 17 17 15 13 11 15 17 15 8 355 334 313 290 274 266 260 253 252 255 263 276 289 302
121 122 287 293 281 279 228 138 138 127 260 190 204 239 44 33 17 19 17 13 11 11 12 11 10 10 12 11 7 3 355 345 328 309 284 266 258 251 248 251 257 268 285 298
142 111 35 344 336 347 48 133 147 133 141 177 192 216 57 26 19 11 5 358 358 3 6 7 7 6 3 358 355 351 347 339 329 320 303 281 264 249 244 243 244 253 272 293
118 127 166 208 229 237 292 327 119 139 182 227 219 163 20 3 356 348 345 343 348 356 359 359 357 352 349 344 341 339 338 333 330 325 314 295 275 256 245 236 230 234 249 274
109 181 224 239 247 164 25 7 25 73 243 222 28 94 10 338 329 325 327 331 345 353 353 351 346 341 338 335 330 331 330 328 328 326 322 309 292 268 246 232 223 220 227 239
71 179 221 293 296 148 76 33 45 43 25 53 90 86 314 311 316 327 329 328 334 340 338 335 332 329 327 325 323 321 318 319 321 322 321 319 310 286 254 233 218 210 210 208
53 113 105 287 314 87 49 10 39 72 44 27 22 322 316 323 327 323 311 306 307 317 318 316 313 309 307 306 305 301 301 306 310 311 315 322 320 306 275 242 217 209 202 193
115 99 112 306 3 297 91 50 68 101 95 51 331 303 304 297 297 290 284 276 278 290 299 299 297 295 293 293 291 288 289 293 296 300 305 313 321 317 302 261 229 214 197 189
100 121 91 67 25 118 115 21 4 321 252 201 300 302 301 299 299 289 287 265 267 282 288 287 284 284 284 284 283 284 285 285 287 289 292 301 312 316 310 289 251 220 199 189
43 65 86 58 335 305 53 322 319 279 252 220 274 294 302 318 308 290 280 283 290 295 294 289 287 284 280 279 278 275 277 278 278 278 280 285 293 304 303 297 276 232 206 194
7 19 51 41 327 76 296 307 332 349 290 294 294 291 293 282 270 279 284 286 287 289 289 290 289 286 280 281 278 274 274 270 269 271 273 277 279 286 292 297 287 241 212 190
29 20 19 16 11 348 312 353 18 265 278 291 292 288 286 284 285 288 288 285 285 286 285 284 283 281 281 279 277 277 275 271 271 270 271 272 274 281 298 303 299 259 213 190
57 28 39 79 162 247 250 245 257 269 279 282 280 284 288 290 291 291 290 287 286 283 282 279 274 275 273 268 265 270 272 273 272 272 269 269 272 271 274 289 298 276 220 192
13 13 101 89 260 267 271 268 272 274 273 278 283 287 290 290 291 291 289 287 283 280 278 277 274 275 275 269 265 264 269 270 267 265 265 265 267 270 268 277 285 276 236 196
342 31 57 304 286 299 293 281 283 291 292 291 292 291 289 289 290 290 290 289 287 285 281 276 275 275 273 269 265 265 266 265 263 263 262 262 260 262 268 272 274 272 255 213
267 145 150 257 259 259 275 283 292 294 290 292 295 295 288 285 289 292 291 290 289 289 286 282 278 276 274 269 265 261 258 256 257 261 260 256 255 257 260 273 284 270 254 221